FW0014 Weather Reports


Display with metric or nautical units.
time (UTC)temp
F
wind
direction
speed
MPH
gust
MPH
rain 1hr
in
rain 24hr
in
rain mn
in
humidity
%
barometer
mb
20240521173538 85 231 8.0 16.0 0.00 0.00 0.00 69 1008.7
20240521173327 85 207 11.0 16.0 0.00 0.00 0.00 68 1011.5
20240521173033 84 212 9.0 17.0 0.00 0.00 0.00 68 1008.7
20240521172845 85 243 11.0 17.0 0.00 0.00 0.00 68 1011.5
20240521172559 85 217 10.0 17.0 0.00 0.00 0.00 67 1008.7
20240521172322 85 263 10.0 17.0 0.00 0.00 0.00 68 1011.6
20240521172048 85 224 9.0 20.0 0.00 0.00 0.00 67 1008.8
20240521171819 85 201 10.0 20.0 0.00 0.00 0.00 68 1011.5
20240521171517 84 214 9.0 20.0 0.00 0.00 0.00 70 1008.9
20240521171315 84 201 14.0 20.0 0.00 0.00 0.00 68 1011.7
20240521171103 84 211 8.0 15.0 0.00 0.00 0.00 69 1008.8
20240521170830 84 227 7.0 15.0 0.00 0.00 0.00 71 1011.7
20240521170552 83 220 7.0 21.0 0.00 0.00 0.00 71 1008.8
20240521170328 84 184 12.0 21.0 0.00 0.00 0.00 70 1011.4
20240521170047 83 181 11.0 21.0 0.00 0.00 0.00 70 1008.6
20240521165844 83 198 13.0 21.0 0.00 0.00 0.00 70 1011.5
20240521165520 83 191 10.0 21.0 0.00 0.00 0.00 70 1008.6
20240521165319 84 210 10.0 21.0 0.00 0.00 0.00 72 1011.5
20240521165001 83 188 13.0 21.0 0.00 0.00 0.00 71 1008.6
20240521164815 83 204 15.0 24.0 0.00 0.00 0.00 71 1011.4
20240521164558 83 221 10.0 21.0 0.00 0.00 0.00 71 1008.6
20240521164313 83 178 12.0 21.0 0.00 0.00 0.00 72 1011.4
20240521164044 83 206 13.0 20.0 0.00 0.00 0.00 72 1008.6
20240521163814 83 197 11.0 18.0 0.00 0.00 0.00 72 1011.3
20240521163543 83 176 12.0 18.0 0.00 0.00 0.00 71 1008.5
20240521163327 83 198 11.0 20.0 0.00 0.00 0.00 73 1011.4
20240521163035 82 227 7.0 20.0 0.00 0.00 0.00 74 1008.6
20240521162822 82 214 11.0 20.0 0.00 0.00 0.00 74 1011.1
20240521162527 82 202 12.0 19.0 0.00 0.00 0.00 75 1008.3
20240521162318 82 190 12.0 19.0 0.00 0.00 0.00 73 1011.0
20240521162022 82 193 13.0 18.0 0.00 0.00 0.00 74 1008.2
20240521161813 82 164 10.0 18.0 0.00 0.00 0.00 75 1011.1
20240521161509 81 158 9.0 17.0 0.00 0.00 0.00 74 1008.5
20240521161350 82 158 11.0 20.0 0.00 0.00 0.00 74 1011.4
20240521161040 81 215 6.0 20.0 0.00 0.00 0.00 75 1008.7
20240521160846 82 214 8.0 20.0 0.00 0.00 0.00 75 1011.4
20240521160509 81 159 13.0 21.0 0.00 0.00 0.00 74 1008.5
20240521160345 82 206 10.0 21.0 0.00 0.00 0.00 75 1011.1
20240521160040 81 189 14.0 21.0 0.00 0.00 0.00 75 1008.3
20240521155818 81 210 13.0 20.0 0.00 0.00 0.00 74 1011.0
20240521155532 81 201 11.0 18.0 0.00 0.00 0.00 75 1008.2
20240521155314 81 175 12.0 21.0 0.00 0.00 0.00 76 1011.0
20240521155021 80 175 12.0 22.0 0.00 0.00 0.00 76 1008.3
20240521154849 80 198 10.0 21.0 0.00 0.00 0.00 77 1011.1
20240521154601 80 193 13.0 21.0 0.00 0.00 0.00 77 1008.4
20240521154325 80 192 10.0 17.0 0.00 0.00 0.00 78 1011.2
20240521154045 79 169 11.0 17.0 0.00 0.00 0.00 78 1008.4
20240521153820 80 179 12.0 18.0 0.00 0.00 0.00 77 1011.2
20240521153538 79 201 9.0 22.0 0.00 0.00 0.00 77 1008.6
20240521153316 80 194 12.0 22.0 0.00 0.00 0.00 77 1011.3
20240521153028 80 179 11.0 22.0 0.00 0.00 0.00 76 1008.4
20240521152832 80 174 13.0 24.0 0.00 0.00 0.00 76 1011.1
20240521152521 80 183 10.0 18.0 0.00 0.00 0.00 77 1008.4
20240521152330 80 200 9.0 18.0 0.00 0.00 0.00 78 1011.2
20240521152012 79 189 10.0 18.0 0.00 0.00 0.00 78 1008.4
20240521151828 80 184 11.0 18.0 0.00 0.00 0.00 78 1011.2
20240521151505 79 183 8.0 14.0 0.00 0.00 0.00 79 1008.5
20240521151345 80 193 9.0 14.0 0.00 0.00 0.00 79 1011.3
20240521151037 79 219 8.0 16.0 0.00 0.00 0.00 79 1008.6
20240521150822 79 217 9.0 16.0 0.00 0.00 0.00 79 1011.2
20240521150528 79 181 10.0 16.0 0.00 0.00 0.00 79 1008.5
20240521150320 79 194 11.0 16.0 0.00 0.00 0.00 79 1011.3
20240521150035 79 181 9.0 19.0 0.00 0.00 0.00 81 1008.6
20240521145817 79 208 11.0 19.0 0.00 0.00 0.00 80 1011.4
20240521145514 78 208 12.0 19.0 0.00 0.00 0.00 80 1008.7
20240521145315 79 196 11.0 19.0 0.00 0.00 0.00 81 1011.5
20240521145055 78 220 11.0 19.0 0.00 0.00 0.00 80 1008.8
20240521144853 79 177 12.0 18.0 0.00 0.00 0.00 80 1011.5
20240521144531 78 206 11.0 21.0 0.00 0.00 0.00 80 1008.7
20240521144331 79 190 10.0 21.0 0.00 0.00 0.00 81 1011.6
20240521144012 78 215 13.0 21.0 0.00 0.00 0.00 81 1008.9
20240521143829 79 201 12.0 21.0 0.00 0.00 0.00 81 1011.7
20240521143547 78 176 11.0 19.0 0.00 0.00 0.00 81 1008.9
20240521143329 79 192 11.0 19.0 0.00 0.00 0.00 81 1011.7
20240521143041 78 180 9.0 19.0 0.00 0.00 0.00 82 1009.0
20240521142827 79 218 12.0 19.0 0.00 0.00 0.00 81 1011.7
20240521142528 78 195 8.0 20.0 0.00 0.00 0.00 83 1009.1
20240521142326 78 164 11.0 20.0 0.00 0.00 0.00 82 1011.7
20240521142010 77 219 11.0 20.0 0.00 0.00 0.00 82 1009.0
20240521141826 78 195 13.0 20.0 0.00 0.00 0.00 82 1011.8
20240521141502 77 167 11.0 20.0 0.00 0.00 0.00 82 1009.0
20240521141323 78 208 11.0 20.0 0.00 0.00 0.00 82 1011.8
20240521141054 77 214 11.0 20.0 0.00 0.00 0.00 83 1009.0
20240521140821 78 218 14.0 20.0 0.00 0.00 0.00 83 1011.7
20240521140545 77 192 10.0 22.0 0.00 0.00 0.00 83 1009.0
20240521140319 77 204 11.0 21.0 0.00 0.00 0.00 83 1011.8
20240521140040 77 202 10.0 17.0 0.00 0.00 0.00 83 1009.0
20240521135816 77 234 10.0 17.0 0.00 0.00 0.00 83 1011.7
20240521135533 77 184 9.0 17.0 0.00 0.00 0.00 83 1009.0
20240521135348 77 210 10.0 16.0 0.00 0.00 0.00 83 1011.7
20240521135059 76 193 9.0 19.0 0.00 0.00 0.00 84 1008.9
20240521134823 77 177 10.0 19.0 0.00 0.00 0.00 84 1011.7
20240521134548 76 177 10.0 19.0 0.00 0.00 0.00 84 1009.0
20240521134320 77 193 10.0 18.0 0.00 0.00 0.00 84 1011.7
20240521134020 76 187 9.0 18.0 0.00 0.00 0.00 84 1009.0
20240521133838 76 169 10.0 18.0 0.00 0.00 0.00 85 1011.5
20240521133544 76 214 11.0 18.0 0.00 0.00 0.00 85 1009.0
20240521133317 76 184 9.0 18.0 0.00 0.00 0.00 85 1011.7
20240521133040 76 175 8.0 12.0 0.00 0.00 0.00 85 1009.0
20240521132815 76 158 10.0 14.0 0.00 0.00 0.00 85 1011.5
20240521132534 76 170 7.0 14.0 0.00 0.00 0.00 86 1008.9
20240521132331 76 195 9.0 14.0 0.00 0.00 0.00 86 1011.5
20240521132018 75 152 7.0 15.0 0.00 0.00 0.00 86 1008.9
20240521131825 76 168 9.0 15.0 0.00 0.00 0.00 86 1011.5
20240521131555 75 174 9.0 15.0 0.00 0.00 0.00 87 1008.9
20240521131320 75 152 9.0 13.0 0.00 0.00 0.00 87 1011.4
20240521131040 75 170 8.0 11.0 0.00 0.00 0.00 87 1008.8
20240521130816 75 193 8.0 12.0 0.00 0.00 0.00 87 1011.4
20240521130530 74 175 7.0 10.0 0.00 0.00 0.00 88 1008.8
20240521130333 75 164 6.0 11.0 0.00 0.00 0.00 88 1011.4
20240521130015 74 158 7.0 11.0 0.00 0.00 0.00 88 1008.6
20240521125828 75 181 6.0 11.0 0.00 0.00 0.00 88 1011.3
20240521125507 74 168 7.0 11.0 0.00 0.00 0.00 88 1008.7
20240521125324 74 174 8.0 11.0 0.00 0.00 0.00 88 1011.3
20240521125100 74 162 6.0 12.0 0.00 0.00 0.00 88 1008.6
20240521124822 75 185 8.0 12.0 0.00 0.00 0.00 88 1011.2
20240521124557 74 201 6.0 12.0 0.00 0.00 0.00 88 1008.6
20240521124341 74 163 8.0 12.0 0.00 0.00 0.00 87 1011.2
20240521124027 74 139 8.0 11.0 0.00 0.00 0.00 87 1008.6
20240521123817 74 149 7.0 10.0 0.00 0.00 0.00 88 1011.2
20240521123521 74 160 8.0 10.0 0.00 0.00 0.00 88 1008.5
20240521123313 74 164 6.0 10.0 0.00 0.00 0.00 88 1011.3
20240521123015 74 164 6.0 8.0 0.00 0.00 0.00 88 1008.6
20240521122830 74 174 6.0 8.0 0.00 0.00 0.00 88 1011.2
20240521122600 74 152 5.0 8.0 0.00 0.00 0.00 88 1008.5
20240521122325 74 173 6.0 7.0 0.00 0.00 0.00 88 1011.0
20240521122058 74 186 6.0 9.0 0.00 0.00 0.00 87 1008.3
20240521121820 74 223 5.0 9.0 0.00 0.00 0.00 87 1011.1
20240521121532 74 179 4.0 9.0 0.00 0.00 0.00 87 1008.3
20240521121337 74 175 7.0 9.0 0.00 0.00 0.00 87 1011.0
20240521121013 74 173 4.0 10.0 0.00 0.00 0.00 87 1008.3
20240521120813 74 189 5.0 10.0 0.00 0.00 0.00 87 1011.0
20240521120553 73 155 7.0 10.0 0.00 0.00 0.00 87 1008.4
20240521120330 74 176 6.0 11.0 0.00 0.00 0.00 87 1010.9
20240521120014 73 162 7.0 11.0 0.00 0.00 0.00 87 1008.1
20240521115829 74 161 8.0 11.0 0.00 0.00 0.00 87 1010.7
20240521115504 73 173 5.0 10.0 0.00 0.00 0.00 87 1007.9
20240521115327 74 160 5.0 10.0 0.00 0.00 0.00 87 1010.4
20240521115056 73 165 4.0 10.0 0.00 0.00 0.00 87 1007.8
20240521114823 74 135 6.0 10.0 0.00 0.00 0.00 87 1010.5
20240521114559 73 169 6.0 11.0 0.00 0.00 0.00 87 1007.9
20240521114319 74 164 7.0 14.0 0.00 0.00 0.00 87 1010.4
20240521114050 74 151 7.0 14.0 0.00 0.00 0.00 87 1007.7
20240521113817 74 142 9.0 14.0 0.00 0.00 0.00 87 1010.3
20240521113540 74 166 8.0 15.0 0.00 0.00 0.00 87 1007.6
20240521113314 74 166 7.0 12.0 0.00 0.00 0.00 87 1010.3
20240521113003 74 148 6.0 11.0 0.00 0.00 0.00 86 1007.5
20240521112829 74 171 8.0 11.0 0.00 0.00 0.00 86 1010.2
20240521112554 74 155 6.0 9.0 0.00 0.00 0.00 86 1007.5
20240521112327 74 151 6.0 9.0 0.00 0.00 0.00 86 1010.1
20240521112044 74 175 6.0 15.0 0.00 0.00 0.00 86 1007.4
20240521111825 74 161 6.0 15.0 0.00 0.00 0.00 86 1010.1
20240521111533 74 166 5.0 15.0 0.00 0.00 0.00 86 1007.3
20240521111323 74 166 9.0 15.0 0.00 0.00 0.00 86 1010.0
20240521111024 74 157 7.0 14.0 0.00 0.00 0.00 85 1007.2
20240521110841 74 160 9.0 14.0 0.00 0.00 0.00 85 1010.0
20240521110552 74 182 7.0 14.0 0.00 0.00 0.00 85 1007.2
20240521110319 74 185 6.0 13.0 0.00 0.00 0.00 85 1009.9
20240521110042 74 173 8.0 13.0 0.00 0.00 0.00 85 1007.2
20240521105838 74 166 8.0 13.0 0.00 0.00 0.00 85 1009.8
20240521105505 74 171 8.0 15.0 0.00 0.00 0.00 85 1007.1
20240521105316 74 161 9.0 15.0 0.00 0.00 0.00 85 1009.8
20240521105100 74 160 8.0 15.0 0.00 0.00 0.00 85 1007.1
20240521104854 74 181 10.0 15.0 0.00 0.00 0.00 85 1009.7
20240521104532 74 140 8.0 12.0 0.00 0.00 0.00 85 1006.9
20240521104329 74 180 8.0 11.0 0.00 0.00 0.00 85 1009.6
20240521104101 74 196 8.0 16.0 0.00 0.00 0.00 85 1006.9
20240521103825 74 200 8.0 15.0 0.00 0.00 0.00 85 1009.7
20240521103549 74 174 8.0 15.0 0.00 0.00 0.00 85 1006.9
20240521103321 75 190 11.0 15.0 0.00 0.00 0.00 84 1009.5
20240521103048 74 152 10.0 15.0 0.00 0.00 0.00 84 1006.8
20240521102817 75 192 7.0 15.0 0.00 0.00 0.00 84 1009.6
20240521102534 74 168 7.0 15.0 0.00 0.00 0.00 84 1006.9
20240521102337 75 181 9.0 15.0 0.00 0.00 0.00 84 1009.5
20240521102100 74 183 9.0 16.0 0.00 0.00 0.00 84 1006.8
20240521101815 75 178 12.0 18.0 0.00 0.00 0.00 84 1009.4
20240521101534 74 152 10.0 18.0 0.00 0.00 0.00 84 1006.8
20240521101332 75 152 11.0 18.0 0.00 0.00 0.00 84 1009.4
20240521101028 74 211 9.0 15.0 0.00 0.00 0.00 84 1006.7
20240521100828 75 160 9.0 18.0 0.00 0.00 0.00 84 1009.4
20240521100522 74 184 8.0 18.0 0.00 0.00 0.00 84 1006.9
20240521100323 75 162 12.0 18.0 0.00 0.00 0.00 84 1009.6
20240521100004 74 163 11.0 14.0 0.00 0.00 0.00 84 1006.9
20240521095820 75 165 10.0 14.0 0.00 0.00 0.00 83 1009.7
20240521095557 74 166 9.0 14.0 0.00 0.00 0.00 83 1007.0
20240521095315 75 191 9.0 14.0 0.00 0.00 0.00 83 1009.7
20240521095052 74 163 8.0 16.0 0.00 0.00 0.00 83 1006.8
20240521094831 75 184 9.0 14.0 0.00 0.00 0.00 83 1009.5
20240521094546 74 179 8.0 15.0 0.00 0.00 0.00 83 1006.9
20240521094327 75 185 9.0 15.0 0.00 0.00 0.00 83 1009.6
20240521094038 74 176 10.0 15.0 0.00 0.00 0.00 83 1007.0
20240521093823 75 174 11.0 16.0 0.00 0.00 0.00 83 1009.8
20240521093528 74 162 9.0 23.0 0.00 0.00 0.00 83 1007.0
20240521093320 75 153 8.0 23.0 0.00 0.00 0.00 83 1009.7
20240521093018 74 159 13.0 23.0 0.00 0.00 0.00 82 1007.1
20240521092816 75 189 13.0 23.0 0.00 0.00 0.00 82 1009.8
20240521092502 74 164 13.0 17.0 0.00 0.00 0.00 82 1007.1
20240521092332 75 159 12.0 17.0 0.00 0.00 0.00 82 1009.9
20240521092056 74 204 11.0 22.0 0.00 0.00 0.00 82 1007.3
20240521091828 75 169 11.0 22.0 0.00 0.00 0.00 82 1009.9
20240521091550 75 153 14.0 22.0 0.00 0.00 0.00 82 1007.2
20240521091324 75 142 10.0 20.0 0.00 0.00 0.00 82 1009.9
20240521091044 75 160 11.0 20.0 0.00 0.00 0.00 82 1007.4
20240521090819 75 176 10.0 20.0 0.00 0.00 0.00 82 1010.0
20240521090539 75 175 12.0 23.0 0.00 0.00 0.00 82 1007.4
20240521090318 75 178 13.0 23.0 0.00 0.00 0.00 82 1010.0
20240521090030 75 181 12.0 23.0 0.00 0.00 0.00 82 1007.4
20240521085816 75 159 12.0 25.0 0.00 0.00 0.00 82 1010.1
20240521085524 75 194 8.0 21.0 0.00 0.00 0.00 82 1007.6
20240521085315 75 167 11.0 21.0 0.00 0.00 0.00 82 1010.0
20240521085007 74 175 11.0 21.0 0.00 0.00 0.00 82 1007.6
20240521084831 75 182 9.0 21.0 0.00 0.00 0.00 83 1010.1
20240521084502 74 210 13.0 21.0 0.00 0.00 0.00 83 1007.6
20240521084327 75 184 11.0 19.0 0.00 0.00 0.00 83 1010.2
20240521084102 74 149 9.0 19.0 0.00 0.00 0.00 83 1007.6
20240521083823 75 151 12.0 19.0 0.00 0.00 0.00 83 1010.2
20240521083554 74 185 10.0 19.0 0.00 0.00 0.00 83 1007.6
20240521083323 75 143 9.0 19.0 0.00 0.00 0.00 83 1010.2
20240521083044 74 162 12.0 19.0 0.00 0.00 0.00 83 1007.7
20240521082819 75 144 12.0 19.0 0.00 0.00 0.00 83 1010.4
20240521082541 74 156 10.0 20.0 0.00 0.00 0.00 83 1007.8
20240521082317 75 181 11.0 16.0 0.00 0.00 0.00 83 1010.4
20240521082100 74 191 11.0 17.0 0.00 0.00 0.00 83 1007.8
20240521081828 75 159 9.0 15.0 0.00 0.00 0.00 83 1010.4
20240521081532 74 183 8.0 15.0 0.00 0.00 0.00 83 1007.8
20240521081323 74 167 11.0 15.0 0.00 0.00 0.00 83 1010.4
20240521081027 74 166 11.0 20.0 0.00 0.00 0.00 83 1007.8
20240521080821 75 168 12.0 20.0 0.00 0.00 0.00 83 1010.3
20240521080608 74 170 10.0 20.0 0.00 0.00 0.00 83 1007.7
20240521080412 74 180 13.0 20.0 0.00 0.00 0.00 83 1010.4
20240521080036 74 168 9.0 19.0 0.00 0.00 0.00 83 1007.9
20240521075821 75 176 11.0 19.0 0.00 0.00 0.00 83 1010.5
20240521075526 74 174 13.0 21.0 0.00 0.00 0.00 83 1008.1
20240521075318 74 169 11.0 21.0 0.00 0.00 0.00 83 1010.6
20240521075050 74 192 13.0 21.0 0.00 0.00 0.00 83 1007.9
20240521074815 74 179 11.0 20.0 0.00 0.00 0.00 83 1010.7
20240521074538 74 179 11.0 20.0 0.00 0.00 0.00 83 1008.1
20240521074354 74 145 13.0 22.0 0.00 0.00 0.00 83 1010.6
20240521074101 74 143 13.0 22.0 0.00 0.00 0.00 83 1008.1
20240521073948 74 177 15.0 24.0 0.00 0.00 0.00 83 1010.6
20240521073532 74 161 13.0 24.0 0.00 0.00 0.00 83 1007.9
20240521073328 75 178 13.0 24.0 0.00 0.00 0.00 83 1010.6
20240521073030 74 158 12.0 23.0 0.00 0.00 0.00 83 1008.0
20240521072825 75 218 14.0 20.0 0.00 0.00 0.00 83 1010.5
20240521072508 74 196 11.0 22.0 0.00 0.00 0.00 82 1008.0
20240521072325 75 195 13.0 22.0 0.00 0.00 0.00 82 1010.5
20240521072102 75 168 13.0 22.0 0.00 0.00 0.00 82 1007.9
20240521071823 75 207 16.0 22.0 0.00 0.00 0.00 82 1010.5
20240521071603 75 151 10.0 15.0 0.00 0.00 0.00 81 1007.9
20240521071320 75 155 11.0 19.0 0.00 0.00 0.00 81 1010.6
20240521071045 75 160 12.0 19.0 0.00 0.00 0.00 81 1008.0
20240521070838 76 178 13.0 19.0 0.00 0.00 0.00 81 1010.6
20240521070512 75 164 12.0 20.0 0.00 0.00 0.00 80 1007.9
20240521070353 76 180 11.0 20.0 0.00 0.00 0.00 80 1010.5
20240521070048 75 165 11.0 21.0 0.00 0.00 0.00 80 1007.9
20240521065830 76 208 11.0 21.0 0.00 0.00 0.00 80 1010.5
20240521065540 75 149 13.0 21.0 0.00 0.00 0.00 79 1008.1
20240521065325 76 179 16.0 21.0 0.00 0.00 0.00 79 1010.8
20240521065034 76 180 12.0 18.0 0.00 0.00 0.00 79 1008.2
20240521064820 76 209 13.0 18.0 0.00 0.00 0.00 79 1010.8
20240521064526 76 190 11.0 16.0 0.00 0.00 0.00 79 1008.2
20240521064316 76 188 13.0 16.0 0.00 0.00 0.00 79 1011.0
20240521064009 76 162 13.0 16.0 0.00 0.00 0.00 79 1008.4
20240521063832 76 193 13.0 16.0 0.00 0.00 0.00 79 1011.0
20240521063503 76 177 9.0 17.0 0.00 0.00 0.00 79 1008.3
20240521063329 77 164 11.0 17.0 0.00 0.00 0.00 79 1010.9
20240521063058 76 131 11.0 17.0 0.00 0.00 0.00 79 1008.2
20240521062826 77 145 10.0 16.0 0.00 0.00 0.00 79 1010.9
20240521062554 76 165 11.0 23.0 0.00 0.00 0.00 80 1008.4
20240521062322 77 149 10.0 23.0 0.00 0.00 0.00 80 1010.9
20240521062049 76 175 10.0 23.0 0.00 0.00 0.00 80 1008.3
20240521061819 77 170 14.0 23.0 0.00 0.00 0.00 80 1011.0
20240521061540 77 144 10.0 15.0 0.00 0.00 0.00 80 1008.4
20240521061333 77 164 10.0 15.0 0.00 0.00 0.00 80 1010.9
20240521061002 77 158 9.0 15.0 0.00 0.00 0.00 80 1008.3
20240521060829 77 163 9.0 15.0 0.00 0.00 0.00 80 1010.9
20240521060555 77 150 6.0 10.0 0.00 0.00 0.00 79 1008.3
20240521060322 77 164 9.0 11.0 0.00 0.00 0.00 79 1010.9
20240521060036 77 160 8.0 11.0 0.00 0.00 0.00 79 1008.3
20240521055818 77 168 8.0 11.0 0.00 0.00 0.00 79 1010.9
20240521055518 77 172 7.0 14.0 0.00 0.00 0.00 78 1008.3
20240521055314 77 164 9.0 14.0 0.00 0.00 0.00 78 1011.0
20240521055002 77 163 9.0 14.0 0.00 0.00 0.00 78 1008.4
20240521054832 77 163 8.0 11.0 0.00 0.00 0.00 78 1010.9
20240521054554 77 172 7.0 12.0 0.00 0.00 0.00 77 1008.4
20240521054329 77 176 8.0 12.0 0.00 0.00 0.00 77 1011.0
20240521054014 77 166 6.0 16.0 0.00 0.00 0.00 76 1008.5
20240521053846 78 159 8.0 16.0 0.00 0.00 0.00 76 1011.0
20240521053545 77 162 10.0 16.0 0.00 0.00 0.00 76 1008.5
20240521053344 78 163 11.0 16.0 0.00 0.00 0.00 76 1011.0
20240521053008 77 158 7.0 13.0 0.00 0.00 0.00 75 1008.5
20240521052841 78 181 8.0 13.0 0.00 0.00 0.00 75 1011.1
20240521052540 77 141 9.0 15.0 0.00 0.00 0.00 75 1008.5
20240521052339 78 172 10.0 15.0 0.00 0.00 0.00 75 1011.1
20240521052027 77 164 8.0 15.0 0.00 0.00 0.00 74 1008.5
20240521051831 78 174 8.0 16.0 0.00 0.00 0.00 74 1011.2
20240521051524 77 163 9.0 15.0 0.00 0.00 0.00 74 1008.6
20240521051325 78 154 9.0 14.0 0.00 0.00 0.00 74 1011.2
20240521051047 78 156 8.0 13.0 0.00 0.00 0.00 74 1008.6
20240521050820 78 163 9.0 13.0 0.00 0.00 0.00 73 1011.2
20240521050542 78 193 9.0 15.0 0.00 0.00 0.00 73 1008.5
20240521050319 78 158 8.0 13.0 0.00 0.00 0.00 73 1011.1
20240521050032 78 191 9.0 13.0 0.00 0.00 0.00 73 1008.6
20240521045823 78 186 8.0 13.0 0.00 0.00 0.00 73 1011.2
20240521045518 78 197 9.0 14.0 0.00 0.00 0.00 73 1008.7
20240521045319 79 168 9.0 14.0 0.00 0.00 0.00 73 1011.4
20240521045002 78 176 9.0 14.0 0.00 0.00 0.00 73 1008.8
20240521044816 78 139 10.0 14.0 0.00 0.00 0.00 73 1011.3
20240521044556 78 156 8.0 15.0 0.00 0.00 0.00 73 1008.7
20240521044354 79 169 8.0 15.0 0.00 0.00 0.00 72 1011.3
20240521044030 78 193 8.0 15.0 0.00 0.00 0.00 72 1008.7
20240521043844 79 161 10.0 20.0 0.00 0.00 0.00 72 1011.3
20240521043556 78 164 8.0 20.0 0.00 0.00 0.00 72 1008.7
20240521043318 79 199 10.0 20.0 0.00 0.00 0.00 72 1011.3
20240521043029 79 148 9.0 16.0 0.00 0.00 0.00 72 1008.8
20240521042814 79 159 9.0 16.0 0.00 0.00 0.00 72 1011.2
20240521042520 79 188 9.0 16.0 0.00 0.00 0.00 72 1008.7
20240521042330 79 161 12.0 16.0 0.00 0.00 0.00 73 1011.3
20240521042006 79 154 8.0 12.0 0.00 0.00 0.00 73 1008.7
20240521041826 79 170 9.0 15.0 0.00 0.00 0.00 73 1011.3
20240521041542 78 172 7.0 15.0 0.00 0.00 0.00 74 1008.8
20240521041323 79 145 8.0 15.0 0.00 0.00 0.00 74 1011.3
20240521041034 78 172 7.0 15.0 0.00 0.00 0.00 74 1008.7
20240521040839 79 140 7.0 10.0 0.00 0.00 0.00 74 1011.3
20240521040529 78 172 7.0 11.0 0.00 0.00 0.00 74 1008.7
20240521040330 79 153 7.0 11.0 0.00 0.00 0.00 74 1011.2
20240521040013 79 149 6.0 11.0 0.00 0.00 0.00 74 1008.7
20240521035827 79 139 6.0 11.0 0.00 0.00 0.00 74 1011.2
20240521035502 79 141 8.0 11.0 0.00 0.00 0.00 74 1008.5
20240521035324 79 137 9.0 12.0 0.00 0.00 0.00 74 1011.1
20240521035034 79 164 7.0 11.0 0.00 0.00 0.00 74 1008.5
20240521034821 79 154 8.0 12.0 0.00 0.00 0.00 74 1011.1
20240521034533 79 149 7.0 15.0 0.00 0.00 0.00 74 1008.5
20240521034319 79 172 9.0 15.0 0.00 0.00 0.00 73 1011.1
20240521034022 79 164 9.0 15.0 0.00 0.00 0.00 73 1008.4
20240521033817 79 146 9.0 15.0 0.00 0.00 0.00 73 1011.0
20240521033507 79 150 9.0 14.0 0.00 0.00 0.00 74 1008.4
20240521033316 79 163 9.0 12.0 0.00 0.00 0.00 73 1010.9
20240521033058 79 145 8.0 14.0 0.00 0.00 0.00 73 1008.4
20240521032832 79 148 8.0 14.0 0.00 0.00 0.00 73 1011.0
20240521032550 79 161 7.0 14.0 0.00 0.00 0.00 73 1008.4
20240521032328 80 160 9.0 15.0 0.00 0.00 0.00 73 1011.0
20240521032046 79 136 8.0 15.0 0.00 0.00 0.00 73 1008.4
20240521031824 80 152 9.0 15.0 0.00 0.00 0.00 73 1010.9
20240521031544 79 114 8.0 14.0 0.00 0.00 0.00 73 1008.3
20240521031321 80 167 8.0 12.0 0.00 0.00 0.00 73 1011.0
20240521031034 79 154 8.0 13.0 0.00 0.00 0.00 73 1008.3
20240521030839 80 152 8.0 10.0 0.00 0.00 0.00 72 1011.0
20240521030520 79 152 7.0 11.0 0.00 0.00 0.00 72 1008.3
20240521030331 80 184 7.0 11.0 0.00 0.00 0.00 72 1010.9
20240521030003 79 143 7.0 11.0 0.00 0.00 0.00 72 1008.3
20240521025849 80 146 6.0 11.0 0.00 0.00 0.00 72 1010.9
20240521025538 79 183 5.0 10.0 0.00 0.00 0.00 72 1008.3
20240521025345 80 158 8.0 10.0 0.00 0.00 0.00 72 1010.8
20240521025058 79 157 6.0 9.0 0.00 0.00 0.00 72 1008.2
20240521024842 80 162 6.0 9.0 0.00 0.00 0.00 72 1010.7
20240521024535 79 149 4.0 8.0 0.00 0.00 0.00 72 1008.1
20240521024319 80 149 5.0 7.0 0.00 0.00 0.00 72 1010.7
20240521024024 79 156 3.0 7.0 0.00 0.00 0.00 72 1008.1
20240521023818 80 154 3.0 7.0 0.00 0.00 0.00 72 1010.7
20240521023516 79 152 3.0 8.0 0.00 0.00 0.00 72 1007.9
20240521023317 80 143 3.0 8.0 0.00 0.00 0.00 72 1010.5
20240521023022 80 115 3.0 8.0 0.00 0.00 0.00 72 1007.8
20240521022835 80 137 4.0 8.0 0.00 0.00 0.00 71 1010.3
20240521022534 80 141 3.0 8.0 0.00 0.00 0.00 71 1007.6
20240521022332 80 122 3.0 8.0 0.00 0.00 0.00 71 1010.2
20240521022016 80 131 3.0 8.0 0.00 0.00 0.00 71 1007.6
20240521021848 80 147 4.0 8.0 0.00 0.00 0.00 71 1010.2
20240521021548 80 114 4.0 8.0 0.00 0.00 0.00 71 1007.5
20240521021324 81 128 4.0 8.0 0.00 0.00 0.00 71 1010.1
20240521021039 80 153 4.0 8.0 0.00 0.00 0.00 71 1007.5
20240521020822 81 133 3.0 7.0 0.00 0.00 0.00 70 1010.1
20240521020531 81 124 3.0 7.0 0.00 0.00 0.00 70 1007.4
20240521020321 81 135 4.0 7.0 0.00 0.00 0.00 70 1010.0
20240521020030 81 145 3.0 7.0 0.00 0.00 0.00 69 1007.5
20240521015838 81 156 4.0 7.0 0.00 0.00 0.00 69 1010.0
20240521015556 81 135 3.0 7.0 0.00 0.00 0.00 69 1007.4
20240521015332 82 135 4.0 7.0 0.00 0.00 0.00 68 1009.9
20240521015049 81 136 3.0 7.0 0.00 0.00 0.00 68 1007.3
20240521014828 82 150 4.0 7.0 0.00 0.00 0.00 68 1009.9
20240521014538 82 155 4.0 8.0 0.00 0.00 0.00 67 1007.3
20240521014324 82 150 4.0 8.0 0.00 0.00 0.00 66 1010.0
20240521014030 82 145 4.0 8.0 0.00 0.00 0.00 66 1007.2
20240521013820 83 148 4.0 8.0 0.00 0.00 0.00 66 1009.9
20240521013523 83 119 4.0 8.0 0.00 0.00 0.00 65 1007.3
20240521013318 83 140 4.0 8.0 0.00 0.00 0.00 65 1010.1
20240521013003 83 132 4.0 8.0 0.00 0.00 0.00 64 1007.3
20240521012838 83 127 5.0 8.0 0.00 0.00 0.00 64 1010.0
20240521012557 83 127 4.0 8.0 0.00 0.00 0.00 64 1007.3
20240521012332 84 147 4.0 9.0 0.00 0.00 0.00 64 1009.9
20240521012047 83 142 4.0 10.0 0.00 0.00 0.00 63 1007.1
20240521011828 84 147 4.0 10.0 0.00 0.00 0.00 63 1009.9
20240521011540 84 141 6.0 10.0 0.00 0.00 0.00 63 1007.2
20240521011324 84 144 6.0 10.0 0.00 0.00 0.00 62 1009.9
20240521011033 84 149 5.0 10.0 0.00 0.00 0.00 62 1007.1
20240521010819 84 139 7.0 10.0 0.00 0.00 0.00 62 1009.8
20240521010521 84 129 5.0 9.0 0.00 0.00 0.00 62 1007.1
20240521010316 85 134 5.0 9.0 0.00 0.00 0.00 61 1009.8
20240521010023 84 133 5.0 9.0 0.00 0.00 0.00 61 1007.1
20240521005832 85 141 6.0 9.0 0.00 0.00 0.00 61 1009.8
20240521005600 85 122 5.0 10.0 0.00 0.00 0.00 60 1007.2
20240521005349 85 154 6.0 10.0 0.00 0.00 0.00 61 1009.9
20240521005030 85 147 5.0 10.0 0.00 0.00 0.00 60 1007.2
20240521004825 85 120 7.0 11.0 0.00 0.00 0.00 60 1009.8
20240521004526 85 143 6.0 11.0 0.00 0.00 0.00 60 1007.1
20240521004322 86 145 8.0 13.0 0.00 0.00 0.00 60 1009.8
20240521004009 85 149 7.0 13.0 0.00 0.00 0.00 60 1007.1
20240521003819 86 168 8.0 13.0 0.00 0.00 0.00 59 1009.9
20240521003505 86 167 7.0 12.0 0.00 0.00 0.00 59 1007.0
20240521003319 86 152 8.0 16.0 0.00 0.00 0.00 58 1009.7
20240521003034 86 143 7.0 16.0 0.00 0.00 0.00 58 1006.9
20240521002814 87 156 9.0 16.0 0.00 0.00 0.00 58 1009.6
20240521002527 86 135 8.0 16.0 0.00 0.00 0.00 57 1006.9
20240521002331 87 135 9.0 14.0 0.00 0.00 0.00 58 1009.5
20240521002014 86 116 8.0 14.0 0.00 0.00 0.00 58 1006.9
20240521001826 87 125 9.0 14.0 0.00 0.00 0.00 58 1009.6
20240521001510 86 150 6.0 11.0 0.00 0.00 0.00 58 1006.9
20240521001322 87 145 7.0 12.0 0.00 0.00 0.00 58 1009.6
20240521001042 86 152 7.0 14.0 0.00 0.00 0.00 57 1007.0
20240521000840 87 162 8.0 14.0 0.00 0.00 0.00 57 1009.8
20240521000503 86 149 9.0 14.0 0.00 0.00 0.00 57 1006.9
20240521000317 87 148 9.0 16.0 0.00 0.00 0.00 57 1009.7
20240521000109 87 165 6.0 17.0 0.00 0.00 0.00 57 1007.0
20240520235815 87 164 10.0 17.0 0.00 0.00 0.00 55 1009.8
20240520235549 87 158 12.0 17.0 0.00 0.00 0.00 55 1007.0
20240520235333 88 156 12.0 17.0 0.00 0.00 0.00 55 1009.6
20240520235041 87 161 9.0 18.0 0.00 0.00 0.00 56 1007.0
20240520234831 88 159 11.0 18.0 0.00 0.00 0.00 55 1009.7
20240520234535 88 160 12.0 18.0 0.00 0.00 0.00 54 1007.0
20240520234329 88 172 12.0 17.0 0.00 0.00 0.00 55 1009.8
20240520234033 88 162 9.0 15.0 0.00 0.00 0.00 56 1007.0
20240520233826 88 138 9.0 14.0 0.00 0.00 0.00 56 1009.7
20240520233523 88 149 8.0 14.0 0.00 0.00 0.00 54 1007.0
20240520233326 88 147 9.0 14.0 0.00 0.00 0.00 55 1009.7
20240520233006 88 167 11.0 14.0 0.00 0.00 0.00 54 1006.9
20240520232825 88 147 13.0 15.0 0.00 0.00 0.00 53 1009.7
20240520232538 87 151 9.0 15.0 0.00 0.00 0.00 53 1007.0
20240520232323 88 160 9.0 17.0 0.00 0.00 0.00 54 1009.8
20240520232031 87 163 9.0 16.0 0.00 0.00 0.00 54 1007.1
20240520231819 88 179 10.0 18.0 0.00 0.00 0.00 54 1009.8
20240520231523 88 153 10.0 18.0 0.00 0.00 0.00 54 1007.1
20240520231317 89 170 10.0 18.0 0.00 0.00 0.00 54 1009.8
20240520231022 88 148 13.0 18.0 0.00 0.00 0.00 53 1007.1
20240520230817 89 169 11.0 18.0 0.00 0.00 0.00 53 1009.8
20240520230511 89 143 11.0 18.0 0.00 0.00 0.00 52 1007.1
20240520230332 89 175 13.0 18.0 0.00 0.00 0.00 52 1009.8
20240520230006 88 172 12.0 19.0 0.00 0.00 0.00 52 1007.2
20240520225829 89 174 13.0 19.0 0.00 0.00 0.00 53 1009.9
20240520225600 88 148 13.0 19.0 0.00 0.00 0.00 53 1007.2
20240520225324 89 168 12.0 19.0 0.00 0.00 0.00 53 1009.9
20240520225053 88 162 13.0 19.0 0.00 0.00 0.00 53 1007.2
20240520224815 89 182 14.0 19.0 0.00 0.00 0.00 52 1009.9
20240520224525 89 156 14.0 19.0 0.00 0.00 0.00 52 1007.1
20240520224351 89 147 12.0 18.0 0.00 0.00 0.00 53 1009.7
20240520224055 89 152 8.0 16.0 0.00 0.00 0.00 52 1006.9
20240520223826 89 159 10.0 16.0 0.00 0.00 0.00 52 1009.6
20240520223549 88 147 12.0 19.0 0.00 0.00 0.00 51 1006.9
20240520223323 89 179 13.0 19.0 0.00 0.00 0.00 52 1009.8
20240520223041 89 146 11.0 19.0 0.00 0.00 0.00 51 1007.2
20240520222821 90 153 12.0 19.0 0.00 0.00 0.00 51 1009.9
20240520222536 89 154 9.0 17.0 0.00 0.00 0.00 52 1007.2
20240520222317 90 160 11.0 17.0 0.00 0.00 0.00 52 1010.0
20240520222102 89 168 12.0 18.0 0.00 0.00 0.00 50 1007.3
20240520221814 89 161 12.0 18.0 0.00 0.00 0.00 51 1009.9
20240520221555 89 167 11.0 18.0 0.00 0.00 0.00 51 1007.3
20240520221331 89 158 12.0 20.0 0.00 0.00 0.00 52 1010.0
20240520221015 89 166 10.0 20.0 0.00 0.00 0.00 53 1007.2
20240520220826 89 128 10.0 20.0 0.00 0.00 0.00 51 1010.0
20240520220513 89 154 12.0 20.0 0.00 0.00 0.00 51 1007.3
20240520220322 90 151 10.0 16.0 0.00 0.00 0.00 51 1010.0
20240520220005 89 164 13.0 16.0 0.00 0.00 0.00 50 1007.3
20240520215820 90 177 14.0 16.0 0.00 0.00 0.00 49 1009.9
20240520215557 90 158 10.0 17.0 0.00 0.00 0.00 52 1007.2
20240520215318 90 181 9.0 14.0 0.00 0.00 0.00 51 1010.0
20240520215048 89 167 9.0 16.0 0.00 0.00 0.00 51 1007.3
20240520214816 90 139 8.0 13.0 0.00 0.00 0.00 52 1010.0
20240520214537 89 151 9.0 14.0 0.00 0.00 0.00 51 1007.3
20240520214313 89 158 8.0 18.0 0.00 0.00 0.00 50 1010.0
20240520214030 89 221 9.0 18.0 0.00 0.00 0.00 49 1007.5
20240520213830 90 214 9.0 18.0 0.00 0.00 0.00 49 1010.2
20240520213515 89 162 12.0 15.0 0.00 0.00 0.00 48 1007.7
20240520213327 90 169 11.0 17.0 0.00 0.00 0.00 48 1010.3
20240520213008 89 147 12.0 17.0 0.00 0.00 0.00 48 1007.7
20240520212825 90 207 12.0 16.0 0.00 0.00 0.00 47 1010.4
20240520212603 89 177 9.0 13.0 0.00 0.00 0.00 49 1007.8
20240520212342 90 191 12.0 18.0 0.00 0.00 0.00 48 1010.5
20240520212031 89 183 7.0 18.0 0.00 0.00 0.00 52 1007.9
20240520211839 89 162 9.0 18.0 0.00 0.00 0.00 49 1010.4
20240520211557 89 165 11.0 17.0 0.00 0.00 0.00 49 1007.8
20240520211316 89 166 10.0 18.0 0.00 0.00 0.00 51 1010.5
20240520211047 89 150 8.0 18.0 0.00 0.00 0.00 53 1008.0
20240520210853 89 135 10.0 18.0 0.00 0.00 0.00 51 1010.6
20240520210509 89 172 13.0 19.0 0.00 0.00 0.00 51 1008.2
20240520210330 89 162 9.0 18.0 0.00 0.00 0.00 51 1010.8
20240520210102 89 156 11.0 18.0 0.00 0.00 0.00 50 1008.2
20240520205826 89 189 9.0 15.0 0.00 0.00 0.00 51 1010.8
20240520205551 89 193 10.0 18.0 0.00 0.00 0.00 52 1008.2
20240520205324 89 155 12.0 18.0 0.00 0.00 0.00 51 1010.9
20240520205041 89 156 12.0 18.0 0.00 0.00 0.00 52 1008.3
20240520204842 89 147 11.0 18.0 0.00 0.00 0.00 52 1010.9
20240520204517 88 150 13.0 18.0 0.00 0.00 0.00 51 1008.3
20240520204338 89 145 11.0 18.0 0.00 0.00 0.00 52 1010.9
20240520204041 88 156 13.0 19.0 0.00 0.00 0.00 52 1008.3
20240520203815 89 173 13.0 19.0 0.00 0.00 0.00 51 1011.0
20240520203538 89 156 14.0 19.0 0.00 0.00 0.00 52 1008.4
20240520203347 89 161 8.0 21.0 0.00 0.00 0.00 55 1011.1
20240520203007 88 171 8.0 20.0 0.00 0.00 0.00 54 1008.5
20240520202822 89 122 10.0 20.0 0.00 0.00 0.00 53 1011.3
20240520202555 88 153 12.0 20.0 0.00 0.00 0.00 53 1008.7
20240520202339 89 147 15.0 20.0 0.00 0.00 0.00 52 1011.3
20240520202043 88 168 7.0 16.0 0.00 0.00 0.00 54 1008.8
20240520201829 89 135 8.0 15.0 0.00 0.00 0.00 55 1011.4
20240520201537 88 204 10.0 15.0 0.00 0.00 0.00 51 1008.9
20240520201328 89 166 10.0 18.0 0.00 0.00 0.00 52 1011.6
20240520201029 88 181 7.0 19.0 0.00 0.00 0.00 53 1008.9
20240520200822 88 174 12.0 19.0 0.00 0.00 0.00 53 1011.5
20240520200511 88 148 13.0 19.0 0.00 0.00 0.00 53 1009.0
20240520200320 88 165 16.0 19.0 0.00 0.00 0.00 53 1011.6
20240520200100 88 168 11.0 20.0 0.00 0.00 0.00 52 1009.1
20240520195837 88 168 12.0 21.0 0.00 0.00 0.00 54 1011.7
20240520195528 87 155 11.0 21.0 0.00 0.00 0.00 55 1009.1
20240520195316 88 134 14.0 21.0 0.00 0.00 0.00 54 1011.7
20240520195025 88 167 13.0 19.0 0.00 0.00 0.00 53 1009.1
20240520194813 88 164 9.0 19.0 0.00 0.00 0.00 55 1011.7
20240520194517 87 149 11.0 19.0 0.00 0.00 0.00 56 1009.1
20240520194331 88 164 14.0 20.0 0.00 0.00 0.00 55 1011.7
20240520194002 87 176 10.0 20.0 0.00 0.00 0.00 55 1009.1
20240520193849 88 147 11.0 20.0 0.00 0.00 0.00 55 1011.7
20240520193535 87 147 12.0 20.0 0.00 0.00 0.00 57 1009.3
20240520193324 88 181 12.0 20.0 0.00 0.00 0.00 55 1011.8
20240520193032 87 174 11.0 20.0 0.00 0.00 0.00 55 1009.2
20240520192821 87 155 9.0 14.0 0.00 0.00 0.00 57 1011.9
20240520192523 87 160 11.0 16.0 0.00 0.00 0.00 56 1009.1
20240520192317 87 148 10.0 16.0 0.00 0.00 0.00 58 1011.8
20240520192017 87 209 9.0 17.0 0.00 0.00 0.00 56 1009.2
20240520191833 87 177 11.0 17.0 0.00 0.00 0.00 56 1011.9
20240520191502 87 199 11.0 17.0 0.00 0.00 0.00 55 1009.3
20240520191349 88 157 11.0 17.0 0.00 0.00 0.00 56 1012.0
20240520191033 87 168 8.0 16.0 0.00 0.00 0.00 57 1009.3
20240520190823 88 151 9.0 16.0 0.00 0.00 0.00 57 1012.1
20240520190523 87 214 9.0 16.0 0.00 0.00 0.00 57 1009.4
20240520190339 88 181 10.0 16.0 0.00 0.00 0.00 56 1012.1
20240520190047 87 179 6.0 14.0 0.00 0.00 0.00 57 1009.5
20240520185833 87 201 9.0 14.0 0.00 0.00 0.00 59 1012.2
20240520185540 86 172 7.0 14.0 0.00 0.00 0.00 60 1009.6
20240520185330 86 160 9.0 15.0 0.00 0.00 0.00 59 1012.2
20240520185031 86 167 6.0 15.0 0.00 0.00 0.00 60 1009.7
20240520184826 87 198 9.0 15.0 0.00 0.00 0.00 57 1012.3
20240520184536 87 213 6.0 13.0 0.00 0.00 0.00 58 1009.7
20240520184343 87 201 8.0 13.0 0.00 0.00 0.00 60 1012.4
20240520184056 86 216 7.0 16.0 0.00 0.00 0.00 59 1009.8
20240520183819 86 216 7.0 16.0 0.00 0.00 0.00 59 1012.3
20240520183543 86 162 11.0 16.0 0.00 0.00 0.00 59 1009.8
20240520183315 86 194 10.0 13.0 0.00 0.00 0.00 60 1012.4
20240520183037 86 197 8.0 15.0 0.00 0.00 0.00 59 1009.8
20240520182832 86 219 10.0 15.0 0.00 0.00 0.00 59 1012.4
20240520182528 85 195 9.0 15.0 0.00 0.00 0.00 58 1009.8
20240520182330 86 193 6.0 14.0 0.00 0.00 0.00 57 1012.4
20240520182009 85 199 8.0 17.0 0.00 0.00 0.00 60 1009.9
20240520181828 86 189 10.0 17.0 0.00 0.00 0.00 60 1012.5
20240520181605 85 158 11.0 17.0 0.00 0.00 0.00 60 1009.9
20240520181326 85 157 10.0 16.0 0.00 0.00 0.00 58 1012.4
20240520181050 85 165 6.0 15.0 0.00 0.00 0.00 62 1009.9
20240520180824 85 197 9.0 15.0 0.00 0.00 0.00 60 1012.6
20240520180541 85 213 8.0 14.0 0.00 0.00 0.00 60 1009.9
20240520180322 85 193 8.0 17.0 0.00 0.00 0.00 61 1012.6
20240520180040 84 204 9.0 17.0 0.00 0.00 0.00 58 1010.0
20240520175841 85 160 10.0 17.0 0.00 0.00 0.00 58 1012.7
20240520175555 84 177 11.0 17.0 0.00 0.00 0.00 61 1010.1
20240520175318 85 129 10.0 17.0 0.00 0.00 0.00 60 1012.7
20240520175049 84 226 12.0 17.0 0.00 0.00 0.00 60 1010.1
20240520174816 85 187 12.0 15.0 0.00 0.00 0.00 59 1012.7
20240520174538 84 169 6.0 11.0 0.00 0.00 0.00 61 1010.2
20240520174329 85 206 8.0 11.0 0.00 0.00 0.00 60 1012.8
20240520174028 84 173 7.0 14.0 0.00 0.00 0.00 62 1010.2
20240520173822 84 208 8.0 16.0 0.00 0.00 0.00 63 1012.8